This demonstration page uses our WeatherBlox Daily Observations layout. Learn more.

Left ArrowRight Arrow

38.83388, -104.82136

Hourly Observations for January 21, 2022

Temp ( °F °C ) Dew Point ( °F °C ) Humidity (%) Winds ( mph kmh ) Pressure ( in mb ) Visibility ( mi km ) Precip ( " mm )
12:58 am 00:58 Mostly Cloudy 30 -1 9 -12.6 41 41 Calm 29.77 1008 10 16 0.00 0.00
1:58 am 01:58 Cloudy 32 -0.1 11 -11.5 42 42 WSW 6 9 29.75 1008 10 16 0.00 0.00
2:58 am 02:58 Cloudy 33 0.7 11 -11.4 40 40 Calm 29.74 1007 10 16 0.00 0.00
3:58 am 03:58 Cloudy 34 1.3 13 -10.5 41 41 WSW 5 7 29.72 1007 10 16 0.00 0.00
4:58 am 04:58 Cloudy 37 2.7 14 -10.2 38 38 Calm 29.70 1006 10 16 0.00 0.00
5:58 am 05:58 Cloudy 37 2.8 14 -9.8 39 39 Calm 29.70 1006 10 16 0.00 0.00
6:58 am 06:58 Cloudy 37 2.6 15 -9.3 42 42 Calm 29.72 1007 10 16 0.00 0.00
7:58 am 07:58 Cloudy 38 3.4 14 -9.9 37 37 W 3 6 29.75 1008 10 16 0.00 0.00
8:58 am 08:58 Mostly Cloudy 41 4.8 14 -9.8 34 34 WNW 9 15 29.77 1008 10 16 0.00 0.00
9:58 am 09:58 Cloudy 40 4.5 18 -7.6 41 41 WNW 13 20 29.81 1010 10 16 0.00 0.00
10:58 am 10:58 Cloudy 38 3.6 17 -8.1 42 42 WNW 15 24 29.82 1010 10 16 0.00 0.00
11:58 am 11:58 Cloudy 37 2.9 18 -7.9 45 45 WNW 15 24 29.85 1011 10 16 0.00 0.00
12:30 pm 12:30 Cloudy with Light Rain 36 2 18 -8 48 48 WNW 22 35 29.85 1011 10 16 0.00 0.00
12:36 pm 12:36 Windy with Snow Likely 34 1 19 -7 56 56 W 20 31 29.88 1012 10 16 0.00 0.00
12:46 pm 12:46 Cloudy with Light Snow 32 0 23 -5 69 69 W 18 30 29.86 1011 3 5 0.00 0.00
12:58 pm 12:58 Cloudy with Light Snow 30 -1.1 26 -3.3 85 85 W 18 30 29.88 1012 7 11 0.00 0.00
1:03 pm 13:03 Mostly Cloudy with Mist and Fog 30 -1 27 -3 86 86 W 16 26 29.88 1012 1 2 0.00 0.00
1:04 pm 13:04 Mostly Cloudy with Light Snow 30 -1 27 -3 86 86 W 16 26 29.88 1012 1 2 0.00 0.00
1:19 pm 13:19 Cloudy with Light Snow 30 -1 27 -3 86 86 W 18 30 29.88 1012 2 3 0.00 0.00
1:58 pm 13:58 Cloudy with Light Snow 31 -0.3 25 -3.8 78 78 W 15 24 29.86 1011 4 6 0.00 0.00
2:08 pm 14:08 Cloudy with Light Snow 32 0 25 -4 75 75 W 13 20 29.87 1012 4 6 0.00 0.00
2:23 pm 14:23 Cloudy with Light Snow 32 0 25 -4 75 75 W 12 19 29.87 1012 4 6 0.00 0.00
2:58 pm 14:58 Cloudy with Light Snow 30 -1 25 -3.7 82 82 W 15 24 29.88 1012 2 3 0.00 0.00
3:58 pm 15:58 Cloudy with Light Snow 30 -1 25 -3.7 82 82 W 14 22 29.91 1013 2 3 0.00 0.00
4:58 pm 16:58 Cloudy with Light Snow 29 -1.5 26 -3.1 89 89 W 15 24 29.91 1013 2 2 0.01 0.25
5:08 pm 17:08 Cloudy with Light Snow 28 -2 27 -3 93 93 W 15 24 29.93 1014 3 5 0.00 0.00
5:13 pm 17:13 Windy with Snow Likely 28 -2 27 -3 93 93 W 20 31 29.93 1014 2 3 0.00 0.00
5:58 pm 17:58 Cloudy with Light Snow 28 -2.1 25 -3.8 88 88 W 18 30 29.97 1015 2 4 0.00 0.00
6:58 pm 18:58 Cloudy with Light Snow 28 -2.2 23 -4.9 82 82 W 15 24 30.01 1016 5 8 0.00 0.00
7:28 pm 19:28 Cloudy with Light Snow 28 -2 21 -6 74 74 W 17 28 30.00 1016 9 14 0.00 0.00
7:58 pm 19:58 Cloudy with Light Snow 29 -1.6 21 -6.2 71 71 W 18 30 29.99 1016 5 8 0.00 0.00
8:18 pm 20:18 Cloudy with Light Snow 28 -2 21 -6 74 74 W 17 28 30.00 1016 3 5 0.00 0.00
8:58 pm 20:58 Cloudy with Light Snow 29 -1.8 22 -5.5 76 76 W 13 20 30.01 1016 3 4 0.00 0.00
9:58 pm 21:58 Cloudy with Light Snow 27 -2.6 24 -4.5 87 87 W 12 19 30.03 1017 5 8 0.00 0.00
10:03 pm 22:03 Partly Cloudy with Scattered Snow Showers 28 -2 25 -4 86 86 WNW 13 20 30.03 1017 4 6 0.00 0.00
10:58 pm 22:58 Cloudy with Light Snow 27 -2.6 24 -4.6 86 86 W 12 19 30.06 1018 4 6 0.00 0.00
11:53 pm 23:53 Cloudy with Light Snow 27 -3 23 -5 86 86 W 9 15 30.07 1018 3 4 0.00 0.00
11:58 pm 23:58 Cloudy with Light Snow 26 -3.3 24 -4.4 92 92 W 8 13 30.07 1018 3 4 0.00 0.00

Powered by AerisWeather